This is the latest recevied weather packets stored in our database for station/object OE6JUE. If no packets are shown the sender has not sent any weather packets the latest 1 day(s).
| Time | Temp. | Humidity | Pressure | Rain* | Wind** | Luminosity | Snow |
|---|---|---|---|---|---|---|---|
| 1778012002 | 15.56° C | 63% | 1010.8 hPa | 0 mm | 1.34 m/s, 225° | - | - |
| 1778011702 | 15.56° C | 63% | 1010.8 hPa | 0 mm | 0.89 m/s, 180° | - | - |
| 1778011402 | 15.56° C | 63% | 1010.8 hPa | 0 mm | 0.45 m/s, 135° | - | - |
| 1778011102 | 15.56° C | 63% | 1010.8 hPa | 0 mm | 0.89 m/s, 180° | - | - |
| 1778010802 | 15.56° C | 63% | 1010.7 hPa | 0 mm | 0.45 m/s, 45° | - | - |
| 1778010584 | 15.56° C | 63% | 1010.7 hPa | 0 mm | 0.89 m/s, 180° | - | - |
| 1778010467 | 15.56° C | 63% | 1010.7 hPa | 0 mm | 0.89 m/s, 180° | - | - |
| 1778010250 | 15.56° C | 63% | 1010.7 hPa | 0 mm | 1.34 m/s, 135° | - | - |
| 1778010136 | 15.56° C | 63% | 1010.7 hPa | 0 mm | 1.34 m/s, 135° | - | - |
| 1778009840 | 15.56° C | 62% | 1010.8 hPa | 0 mm | 0.45 m/s, 180° | - | - |
| 1778009551 | 15.56° C | 62% | 1010.7 hPa | 0 mm | 0.89 m/s, 203° | - | - |
| 1778009231 | 16.11° C | 62% | 1010.7 hPa | 0 mm | 0.89 m/s, 180° | - | - |
| 1778008931 | 16.11° C | 61% | 1010.7 hPa | 0 mm | 0.89 m/s, 203° | - | - |
| 1778008631 | 16.11° C | 61% | 1010.8 hPa | 0 mm | 1.79 m/s, 180° | - | - |
| 1778008331 | 16.11° C | 61% | 1010.7 hPa | 0 mm | 2.24 m/s, 180° | - | - |
| 1778008031 | 16.11° C | 61% | 1010.8 hPa | 0 mm | 1.34 m/s, 158° | - | - |
| 1778007731 | 16.11° C | 61% | 1010.7 hPa | - | 1.34 m/s, 135° | - | - |
| 1778007516 | 16.11° C | 61% | 1010.8 hPa | 0 mm | 0.89 m/s, 180° | - | - |
| 1778004403 | 17.22° C | 57% | 1010.6 hPa | 0 mm | 1.79 m/s, 180° | - | - |
| 1778004133 | 17.22° C | 56% | 1010.7 hPa | - | 1.34 m/s, 225° | - | - |
| 1778003834 | 17.22° C | 56% | 1010.7 hPa | 0 mm | 1.34 m/s, 225° | - | - |
| 1778003534 | 17.22° C | 55% | 1010.6 hPa | 0 mm | 0.89 m/s, 180° | - | - |
| 1778003233 | 17.78° C | 51% | 1010.7 hPa | 0 mm | 1.79 m/s, 180° | - | - |
| 1778002933 | 17.78° C | 51% | 1010.7 hPa | 0 mm | 1.79 m/s, 225° | - | - |
| 1778002634 | 17.78° C | 51% | 1010.8 hPa | 0 mm | 1.79 m/s, 180° | - | - |
* Rain latest hour (hover to see other rain measurements)
** Current wind speed in m/s (hover to see current wind gust speed)